Weather History for EIKN - January, 2014

Change the Weather History Date:

Monday, January 13, 2014

  Actual Average Record
Temperature  
Mean Temperature 36 °F -  
Max Temperature 39 °F - - ()
Min Temperature 33 °F - - ()
Degree Days  
Heating Degree Days 29    
Moisture  
Dew Point 35 °F    
Average Humidity 94    
Maximum Humidity 100    
Minimum Humidity 84    
Precipitation  
Precipitation 0.02 in - - ()
Sea Level Pressure  
Sea Level Pressure 29.41 in    
Wind  
Wind Speed 8 mph ()    
Max Wind Speed 14 mph    
Max Gust Speed -    
Visibility 8.6 miles    
Events Rain    
T = Trace of Precipitation, MM = Missing Value Source: Averaged Metar Reports

Daily Weather History Graph

Daily Weather History Graph

Search for Another Location

Airport or City:

Trip Planner

Search our weather history database for the weather conditions in past years. The results will help you decide how hot, cold, wet, or windy it might be!

Date:

Astronomy

Jan. 13, 2014 Rise Set
Actual Time 8:47 AM GMT 4:40 PM GMT
Civil Twilight 8:05 AM GMT 5:22 PM GMT
Nautical Twilight 7:20 AM GMT 6:07 PM GMT
Astronomical Twilight 6:38 AM GMT 6:49 PM GMT
Moon 2:48 PM GMT (1/13) 6:22 AM GMT (1/13)
Length of Visible Light 9h 17m
Length of Day
7h 53m
Waxing Gibbous, 94% of the Moon is Illuminated
Jan 13
Waxing Gibbous
Jan 16
Full
Jan 24
Last Quarter
Jan 30
New
Feb 6
First Quarter

Hourly Weather History & Observations

Time (GMT) Temp. Windchill Dew Point Humidity Pressure Visibility Wind Dir Wind Speed Gust Speed Precip Events Conditions
12:00 AM 35 °F - 35 °F 99% 29.51 in - South 8.9 mph - -  
1:00 AM 35 °F - 35 °F 98% 29.50 in - South 8.9 mph - -  
2:00 AM 35 °F - 34 °F 96% 29.50 in - South 8.9 mph - -  
3:00 AM 35 °F - 35 °F 98% 29.49 in - South 8.9 mph - -  
4:00 AM 34 °F - 34 °F 100% 29.47 in - SE 8.9 mph - -  
5:00 AM 35 °F - 34 °F 92% 29.44 in - SE 6.7 mph - -  
6:00 AM 35 °F - 35 °F 97% 29.41 in 9 mi SSE 11.2 mph - - Rain Light Rain
6:00 AM 35.6 °F 28.0 °F 33.8 °F 93% 29.36 in 6.2 mi SSE 10.4 mph - N/A Rain Light Rain
7:00 AM 36 °F - 36 °F 100% 29.41 in 11 mi SSE 13.4 mph - - Rain Light Rain
7:00 AM 35.6 °F 27.1 °F 35.6 °F 100% 29.36 in 6.2 mi SSE 12.7 mph - N/A   Mostly Cloudy
7:30 AM 37.4 °F 29.3 °F 35.6 °F 93% 29.36 in 6.2 mi SSE 12.7 mph - N/A Rain Light Rain
8:00 AM 36 °F - 36 °F 100% 29.40 in 12 mi South 13.4 mph - - Rain Light Rain
8:00 AM 37.4 °F 28.9 °F 35.6 °F 93% 29.36 in 6.2 mi South 13.8 mph - N/A   Mostly Cloudy
8:30 AM 35.6 °F 26.6 °F 35.6 °F 100% 29.36 in 6.2 mi South 13.8 mph - N/A   Mostly Cloudy
9:00 AM 36 °F - 35 °F 94% 29.40 in 19 mi South 13.4 mph - - Rain Light Rain
9:00 AM 35.6 °F 26.6 °F 35.6 °F 100% 29.36 in 6.2 mi South 13.8 mph - N/A   Mostly Cloudy
9:30 AM 35.6 °F 28.6 °F 33.8 °F 93% 29.36 in 6.2 mi South 9.2 mph - N/A   Scattered Clouds
10:00 AM 35 °F - 35 °F 99% 29.40 in 16 mi South 8.9 mph - -   Mostly Cloudy
10:00 AM 35.6 °F 28.6 °F 35.6 °F 100% 29.36 in 6.2 mi South 9.2 mph - N/A   Scattered Clouds
10:30 AM 35.6 °F 28.6 °F 35.6 °F 100% 29.36 in 6.2 mi South 9.2 mph - N/A   Scattered Clouds
11:00 AM 36 °F - 36 °F 100% 29.41 in 12 mi South 8.9 mph - -   Mostly Cloudy
11:00 AM 37.4 °F 30.8 °F 35.6 °F 93% 29.36 in 6.2 mi South 9.2 mph - N/A   Scattered Clouds
11:30 AM 37.4 °F 30.8 °F 35.6 °F 93% 29.36 in 6.2 mi South 9.2 mph - N/A Rain Light Rain Showers
12:00 PM 38 °F - 36 °F 90% 29.39 in 19 mi South 11.2 mph - - Rain Light Rain Showers
12:00 PM 37.4 °F 30.3 °F 35.6 °F 93% 29.36 in 6.2 mi South 10.4 mph - N/A   Scattered Clouds
12:30 PM 37.4 °F 30.8 °F 37.4 °F 100% 29.36 in 6.2 mi South 9.2 mph - N/A   Scattered Clouds
1:00 PM 39.2 °F 33.0 °F 37.4 °F 93% 29.36 in 6.2 mi SSW 9.2 mph - N/A   Partly Cloudy
1:30 PM 39.2 °F 33.6 °F 37.4 °F 93% 29.36 in 6.2 mi SSW 8.1 mph - N/A   Mostly Cloudy
2:00 PM 39 °F - 38 °F 92% 29.40 in 31 mi SW 8.9 mph - - Rain Light Rain Showers
2:00 PM 39.2 °F 33.0 °F 37.4 °F 93% 29.36 in 6.2 mi SW 9.2 mph - N/A   Partly Cloudy
2:30 PM 39.2 °F 33.6 °F 35.6 °F 87% 29.36 in 6.2 mi WSW 8.1 mph - N/A   Partly Cloudy
3:00 PM 39 °F - 36 °F 84% 29.42 in 31 mi WSW 6.7 mph - -   Partly Cloudy
3:00 PM 39.2 °F 35.0 °F 35.6 °F 87% 29.39 in 6.2 mi WSW 5.8 mph - N/A   Partly Cloudy
3:30 PM 37.4 °F 32.8 °F 35.6 °F 93% 29.39 in 6.2 mi WSW 5.8 mph - N/A   Partly Cloudy
4:00 PM 37 °F - 35 °F 87% 29.44 in 6 mi WSW 8.9 mph - -   Mostly Cloudy
4:00 PM 37.4 °F 30.8 °F 33.8 °F 87% 29.39 in 5.6 mi WSW 9.2 mph - N/A   Scattered Clouds
4:30 PM 37.4 °F - 35.6 °F 93% 29.42 in 6.2 mi West 2.3 mph - N/A   Partly Cloudy
5:00 PM 35 °F - 34 °F 93% 29.46 in 11 mi WSW 4.5 mph - -   Partly Cloudy
5:00 PM 35.6 °F 31.7 °F 33.8 °F 93% 29.42 in 6.2 mi WSW 4.6 mph - N/A   Partly Cloudy
6:00 PM 33 °F - 32 °F 95% 29.47 in 16 mi SSW 4.5 mph - -   Partly Cloudy
7:00 PM 33 °F - 32 °F 92% 29.49 in 16 mi SW 6.7 mph - -   Scattered Clouds
8:00 PM 33 °F - 32 °F 94% 29.50 in - SSW 4.5 mph - -  
9:00 PM 33 °F - 31 °F 92% 29.52 in - SSW 4.5 mph - -  
10:00 PM 33 °F - 31 °F 89%  in - SSW 4.5 mph - -  
11:00 PM 33 °F - 31 °F 88% 29.55 in - SSW 6.7 mph - -